DECAYED

JIELONG 3 DEB, 65561 (Decayed)

Orbit data source: Space-Track

JIELONG 3 DEB, 65561 was space debris in LEO originally from a launch on Mon, 08 Sep 2025 UTC launched from the Yellow Sea Launch Area, China (YSLA). Debris objects in space refer to the collection of defunct objects orbiting the Earth. Examples of debris include non-operational satellites, rocket bodies, and fragments generated from explosions, collisions, or faulty payload assembly.

Not visible in the next 10 days
Identifier
65561, 2025-201M
Orbit
Decayed
Country
Flag of CNCN / PRC
Related business
Manufacturer
Changzheng H.
Mission
Decayed spacecraft
Bus & Motor
Unknown
Mass
Unknown
Launch date (UTC)
2025-09-08 (9 months ago)
Launch vehicle
Unknown
Launch site
Yellow Sea Launch Area, China (YSLA)
Object type
Payload
Rocket body
Debris
Shape & HBR
Unknown shape, 0.5 m
Radar Cross Section
Medium (>0.1 m² and <1 m²)

Expand to show TLE details & history
Last TLE update: 3 months ago

TLE from 3 months ago
0 JIELONG 3 DEB
1 65561U 25201M   26081.83395989  .16342055  12297-4  57747-3 0  9998
2 65561  50.0458 335.5800 0005293 183.1623 176.9350 16.44201711 30375
Epoch: 2026-03-22T20:00Z
TLE epoch observation values (Epoch: 2026-03-22T20:00:54.134Z)
Latitude
-0.00002°
Longitude
-144.98021°
Altitude
158.69 km
Speed
7.81 km/s
True Right ascension
22h 22m 19s
True Declination
0° 00' 00"
Sunlit
Object was in daylight at epoch
Visualization orbit readout
Latitude
Unknown
Longitude
Unknown
Altitude
Unknown
Speed
Unknown
Apparent Right ascension
Unknown
Apparent Declination
Unknown
Sunlit
N/A
Visualization observer readout
Local Sidereal Time
07:22:37
Azimuth
Unknown
Elevation
Unknown
Doppler factor
Unknown
Orbital elements
Apogee altitude
158.911 km
Perigee altitude
151.994 km
Semi-major axis
6,533.59 km
Eccentricity
0.00053
Inclination
50.0458°
RAAN
335.58°
Arg. of periapsis
183.1623°
True anomaly
176.93824°
Mean anomaly
176.935°
Eccentric anomaly
176.93662°
Mean motion
4.10975 °/min
Orbital period
87.6 mins
BSTAR
0.00057747
Loading maneuver chart data...
Computing Atmospheric mass density...
Loading historical data...
Loading historical data...
Loading historical data...
Loading historical data...
Loading historical data...
Loading historical data...
Loading historical data...

Documentation

Showing up to 5 results
|